User: anonymous   Login
Location: Fremont
(37.5480°N, 121.9880°W)
Time: 04:05:37
(UTC-07:00)
Language:

Cosmos 1844 Rocket - Orbit

View from above orbital plane
View from above orbital plane
View from above satellite
View from above satellite

Ground track
Ground track

The orbit data is extracted from the following two-line orbital elements,

1 17974U 87041B   17291.49758698 -.00000000  00000-0  23558-4 0  9992
2 17974  71.0104  10.0412 0015171 213.4267 197.4575 14.17232668574151
Epoch (UTC): 18 October 2017 11:56:31
Eccentricity: 0.0015171
inclination: 71.0104°
perigee height: 824 km
apogee height: 845 km
right ascension of ascending node: 10.0412°
argument of perigee: 213.4267°
revolutions per day: 14.17232668
mean anomaly at epoch: 197.4575°
orbit number at epoch: 57415

The dashed part of the orbit path shows where the satellite is in the earth's shadow,  

DLR